Temp
-11 -11 -11 -11 -10 -10 -10 -11 -10 -10 -10 -9 -9 -9 -9 -9 -9 -10 -10 -9 -9 -9 -9 -10 -11 -12 -12 -11 -11 -11 -10 -11 -11 -10 -11 -11 -11 -11 -11 -11 -11 -12 -12
-11 -11 -11 -10 -10 -10 -10 -11 -11 -10 -10 -10 -10 -9 -9 -9 -9 -9 -9 -10 -10 -9 -10 -11 -11 -13 -12 -12 -11 -11 -11 -11 -11 -11 -11 -11 -11 -11 -11 -11 -12 -12 -12
-11 -11 -10 -10 -11 -11 -11 -11 -11 -11 -10 -10 -10 -10 -10 -9 -9 -9 -10 -10 -10 -10 -10 -11 -12 -14 -13 -12 -12 -12 -11 -12 -12 -11 -11 -11 -11 -11 -11 -12 -12 -12 -12
-11 -11 -11 -10 -11 -11 -11 -11 -11 -11 -11 -11 -11 -11 -11 -10 -10 -10 -10 -10 -10 -11 -11 -12 -13 -14 -14 -13 -13 -12 -12 -12 -12 -12 -12 -12 -12 -12 -12 -12 -12 -12 -13
-12 -12 -12 -12 -11 -12 -12 -12 -12 -11 -11 -11 -11 -11 -11 -11 -10 -10 -10 -11 -11 -11 -11 -12 -13 -14 -14 -13 -13 -13 -12 -12 -12 -12 -12 -12 -12 -12 -12 -12 -12 -12 -13
-13 -13 -13 -13 -12 -12 -12 -12 -12 -12 -12 -11 -11 -11 -11 -11 -11 -10 -10 -11 -11 -11 -12 -12 -13 -14 -14 -14 -13 -13 -13 -12 -12 -12 -12 -12 -12 -12 -12 -13 -13 -13 -14
-14 -13 -13 -13 -12 -12 -12 -12 -12 -12 -12 -12 -12 -12 -12 -12 -11 -11 -11 -10 -11 -12 -12 -12 -13 -13 -14 -14 -14 -14 -13 -13 -12 -13 -13 -13 -13 -12 -13 -13 -13 -13 -14
-14 -14 -14 -13 -13 -13 -12 -13 -13 -13 -12 -12 -13 -12 -13 -12 -12 -11 -11 -11 -11 -12 -12 -12 -12 -13 -14 -15 -14 -14 -14 -13 -13 -13 -13 -13 -13 -13 -13 -13 -13 -13 -14
-15 -14 -14 -14 -13 -13 -13 -13 -14 -13 -13 -13 -12 -12 -12 -12 -12 -12 -12 -11 -11 -12 -12 -12 -13 -12 -13 -14 -15 -15 -14 -14 -14 -14 -13 -13 -13 -13 -13 -13 -14 -14 -14
-16 -15 -15 -15 -14 -14 -14 -14 -15 -15 -14 -14 -14 -13 -13 -13 -12 -12 -12 -12 -12 -12 -12 -13 -13 -13 -13 -14 -15 -15 -15 -14 -14 -14 -14 -13 -14 -14 -14 -14 -14 -14 -14
-16 -16 -16 -16 -15 -15 -15 -15 -15 -15 -15 -15 -14 -14 -14 -13 -13 -13 -13 -13 -13 -12 -13 -13 -13 -13 -13 -14 -14 -16 -15 -15 -15 -14 -14 -14 -14 -14 -14 -14 -14 -14 -14
-16 -16 -16 -16 -16 -16 -16 -16 -15 -16 -15 -15 -15 -15 -14 -14 -13 -13 -13 -13 -13 -13 -13 -13 -13 -13 -13 -14 -13 -15 -16 -16 -15 -15 -14 -14 -14 -14 -14 -14 -14 -14 -14
-17 -17 -17 -17 -17 -16 -16 -16 -16 -16 -16 -16 -15 -15 -15 -15 -15 -14 -14 -14 -14 -13 -13 -13 -13 -14 -14 -14 -14 -14 -16 -16 -16 -15 -15 -15 -15 -15 -14 -14 -14 -14 -14
-18 -17 -17 -17 -17 -17 -17 -17 -17 -16 -17 -16 -16 -15 -15 -15 -16 -16 -15 -14 -14 -14 -14 -14 -14 -14 -14 -14 -14 -14 -14 -16 -15 -16 -15 -15 -15 -15 -15 -15 -15 -15 -15
-18 -18 -18 -17 -17 -17 -17 -17 -17 -17 -17 -17 -17 -16 -16 -16 -16 -16 -16 -16 -15 -15 -14 -14 -14 -14 -14 -14 -14 -14 -14 -14 -15 -16 -16 -17 -16 -16 -16 -16 -16 -16 -16
-20 -19 -19 -18 -18 -18 -18 -18 -18 -18 -18 -17 -17 -17 -17 -17 -17 -17 -16 -15 -15 -15 -16 -16 -16 -16 -16 -15 -15 -15 -15 -15 -15 -14 -15 -15 -16 -16 -16 -16 -16 -15 -16
-21 -20 -20 -19 -19 -18 -19 -19 -19 -18 -18 -18 -18 -17 -17 -17 -17 -18 -18 -17 -17 -16 -15 -16 -16 -16 -16 -16 -16 -16 -16 -16 -16 -16 -17 -16 -16 -16 -16 -16 -16 -16 -16
-21 -21 -20 -19 -20 -19 -19 -19 -19 -19 -19 -18 -18 -18 -18 -18 -18 -18 -18 -18 -18 -18 -17 -17 -16 -17 -17 -15 -16 -16 -17 -16 -16 -16 -16 -16 -16 -16 -16 -17 -16 -16 -16
-22 -22 -21 -20 -20 -20 -20 -20 -20 -19 -19 -19 -19 -19 -18 -18 -19 -19 -19 -19 -19 -19 -18 -18 -17 -17 -16 -16 -15 -15 -16 -15 -15 -15 -16 -16 -16 -16 -16 -17 -17 -16 -16
-22 -23 -22 -22 -21 -20 -21 -21 -20 -20 -20 -19 -19 -19 -19 -19 -19 -19 -19 -19 -19 -20 -19 -18 -18 -18 -18 -18 -18 -18 -18 -18 -17 -17 -17 -18 -18 -19 -19 -19 -19 -18 -18
-24 -23 -23 -22 -22 -21 -21 -22 -21 -21 -21 -21 -20 -20 -20 -20 -19 -20 -20 -20 -20 -20 -21 -20 -19 -19 -20 -19 -19 -19 -19 -18 -18 -18 -18 -18 -18 -18 -18 -18 -18 -18 -18
-23 -23 -23 -24 -23 -22 -22 -22 -22 -22 -22 -22 -21 -21 -21 -20 -20 -20 -20 -20 -20 -20 -21 -21 -21 -21 -21 -20 -20 -19 -19 -19 -19 -19 -18 -18 -18 -19 -19 -18 -19 -19 -19
-24 -25 -24 -23 -23 -23 -23 -23 -22 -22 -22 -22 -22 -22 -22 -21 -21 -21 -21 -21 -21 -21 -21 -21 -22 -22 -21 -21 -21 -21 -20 -20 -20 -20 -19 -19 -19 -19 -19 -19 -19 -19 -19
-26 -27 -26 -24 -24 -24 -23 -23 -23 -23 -23 -23 -22 -22 -22 -22 -22 -22 -22 -21 -21 -21 -21 -21 -21 -22 -22 -22 -22 -22 -21 -21 -21 -21 -20 -20 -20 -20 -20 -19 -20 -19 -19
-27 -27 -26 -26 -25 -24 -24 -24 -24 -24 -24 -23 -23 -23 -22 -22 -22 -22 -22 -22 -22 -22 -22 -22 -22 -22 -22 -22 -22 -23 -22 -22 -22 -22 -21 -21 -21 -21 -20 -20 -20 -20 -20
-28 -28 -28 -28 -27 -27 -26 -25 -25 -24 -24 -24 -24 -23 -23 -23 -23 -22 -22 -22 -22 -22 -22 -22 -22 -22 -22 -22 -22 -22 -22 -22 -22 -22 -22 -22 -22 -22 -21 -21 -21 -21 -21
Height
5731 5736 5741 5745 5749 5753 5759 5761 5762 5765 5769 5772 5775 5779 5781 5785 5788 5789 5791 5794 5797 5800 5802 5805 5807 5812 5819 5822 5826 5829 5834 5839 5843 5845 5847 5848 5849 5851 5854 5856 5858 5858 5858
5719 5723 5728 5734 5738 5743 5748 5753 5753 5755 5759 5762 5766 5769 5771 5773 5779 5782 5784 5786 5788 5790 5792 5796 5798 5803 5808 5813 5818 5822 5825 5831 5835 5840 5841 5842 5844 5847 5848 5850 5852 5853 5853
5706 5710 5717 5725 5730 5734 5737 5741 5745 5745 5748 5752 5755 5759 5762 5765 5768 5772 5775 5778 5778 5780 5782 5785 5788 5792 5799 5805 5809 5813 5817 5822 5826 5830 5835 5838 5839 5840 5841 5844 5845 5847 5848
5697 5702 5706 5712 5719 5724 5726 5729 5733 5736 5738 5742 5746 5750 5753 5755 5759 5761 5764 5767 5768 5770 5773 5775 5778 5783 5790 5795 5801 5805 5810 5813 5817 5821 5826 5830 5833 5833 5836 5837 5838 5840 5841
5686 5691 5694 5698 5707 5713 5716 5720 5723 5728 5730 5733 5736 5739 5743 5746 5748 5751 5755 5757 5759 5761 5762 5764 5768 5773 5780 5786 5792 5797 5802 5805 5810 5814 5817 5821 5825 5827 5829 5829 5830 5831 5833
5673 5678 5683 5687 5692 5699 5705 5708 5711 5716 5720 5723 5726 5728 5732 5735 5738 5741 5744 5747 5749 5751 5753 5755 5759 5763 5768 5777 5783 5786 5791 5796 5801 5804 5808 5813 5816 5818 5819 5821 5822 5824 5824
5661 5666 5671 5675 5680 5685 5691 5697 5700 5703 5708 5713 5716 5718 5720 5724 5727 5730 5732 5736 5739 5742 5744 5745 5748 5753 5759 5766 5772 5776 5781 5786 5791 5795 5798 5801 5805 5808 5811 5813 5814 5815 5815
5647 5652 5657 5662 5667 5672 5679 5683 5688 5691 5694 5699 5704 5708 5711 5714 5717 5720 5722 5725 5727 5731 5732 5735 5737 5740 5745 5753 5760 5764 5769 5775 5781 5785 5789 5792 5796 5798 5801 5803 5805 5806 5807
5634 5640 5645 5649 5654 5660 5666 5671 5676 5680 5684 5688 5691 5695 5699 5702 5706 5709 5710 5713 5716 5718 5721 5724 5725 5727 5732 5739 5747 5753 5758 5764 5768 5775 5779 5782 5786 5789 5792 5793 5794 5795 5797
5623 5627 5632 5637 5642 5647 5653 5658 5663 5668 5673 5676 5681 5683 5686 5690 5694 5697 5700 5702 5704 5705 5709 5711 5714 5715 5719 5725 5733 5741 5747 5753 5759 5764 5768 5772 5775 5778 5781 5783 5784 5785 5786
5611 5615 5620 5624 5630 5634 5640 5645 5651 5656 5661 5665 5668 5672 5674 5678 5682 5685 5687 5690 5692 5693 5697 5701 5702 5703 5707 5713 5719 5728 5735 5742 5749 5752 5756 5760 5763 5766 5768 5771 5771 5772 5773
5597 5603 5608 5613 5617 5622 5628 5633 5638 5643 5648 5653 5656 5660 5665 5667 5669 5673 5676 5678 5680 5684 5685 5689 5691 5696 5697 5702 5709 5716 5723 5729 5735 5741 5744 5748 5750 5753 5755 5758 5759 5760 5761
5585 5591 5597 5602 5607 5612 5617 5622 5627 5633 5638 5640 5645 5650 5654 5656 5659 5661 5664 5667 5670 5673 5676 5676 5678 5683 5688 5693 5699 5704 5710 5716 5722 5726 5730 5734 5736 5740 5742 5744 5745 5746 5747
5574 5581 5586 5591 5596 5602 5606 5611 5616 5621 5626 5631 5636 5640 5643 5647 5651 5653 5655 5657 5660 5662 5666 5667 5668 5674 5679 5683 5688 5692 5696 5701 5706 5710 5715 5718 5722 5726 5729 5731 5733 5733 5734
5563 5570 5576 5581 5586 5591 5596 5601 5606 5610 5615 5620 5625 5629 5633 5636 5639 5644 5647 5650 5651 5653 5654 5657 5659 5663 5666 5670 5675 5679 5684 5688 5692 5696 5701 5702 5705 5709 5712 5715 5716 5717 5717
5551 5558 5564 5570 5576 5581 5585 5591 5596 5600 5605 5610 5614 5618 5624 5627 5629 5632 5637 5640 5641 5644 5649 5649 5652 5652 5655 5658 5662 5668 5673 5680 5681 5683 5687 5687 5691 5693 5695 5699 5699 5703 5705
5540 5546 5552 5558 5564 5569 5575 5580 5585 5590 5595 5600 5605 5608 5613 5617 5620 5623 5626 5629 5631 5634 5636 5642 5646 5647 5649 5653 5657 5661 5664 5668 5671 5674 5678 5679 5684 5685 5685 5686 5689 5691 5691
5529 5535 5540 5546 5552 5558 5564 5569 5575 5580 5585 5589 5594 5599 5603 5607 5611 5613 5617 5619 5622 5625 5628 5631 5635 5637 5639 5644 5649 5653 5654 5655 5658 5662 5666 5669 5671 5674 5676 5676 5679 5678 5681
5515 5522 5529 5535 5540 5547 5553 5559 5564 5569 5575 5579 5584 5590 5593 5597 5601 5604 5607 5609 5613 5618 5620 5622 5624 5626 5627 5632 5636 5638 5640 5644 5647 5649 5653 5656 5657 5658 5660 5662 5662 5663 5664
5503 5511 5517 5523 5530 5536 5542 5548 5553 5559 5564 5569 5574 5579 5583 5586 5590 5594 5597 5600 5603 5609 5614 5616 5618 5620 5622 5623 5626 5627 5630 5632 5636 5637 5639 5641 5644 5646 5648 5650 5650 5652 5654
5490 5498 5506 5512 5519 5525 5530 5536 5541 5547 5553 5558 5563 5568 5573 5577 5580 5584 5587 5591 5594 5598 5601 5607 5611 5613 5616 5617 5620 5622 5624 5627 5628 5630 5632 5633 5633 5636 5638 5639 5640 5642 5644
5477 5483 5491 5498 5505 5513 5519 5525 5530 5536 5541 5546 5552 5556 5561 5566 5570 5573 5576 5580 5584 5589 5591 5595 5598 5603 5607 5609 5612 5614 5617 5620 5622 5623 5625 5625 5625 5626 5628 5630 5631 5632 5632
5466 5471 5476 5483 5492 5499 5506 5512 5517 5523 5528 5534 5539 5545 5550 5555 5559 5563 5566 5570 5574 5578 5582 5586 5588 5592 5596 5600 5603 5606 5608 5610 5612 5614 5616 5617 5617 5617 5619 5619 5621 5621 5621
5454 5459 5463 5471 5480 5487 5491 5497 5504 5510 5516 5521 5527 5532 5537 5543 5548 5552 5556 5560 5563 5567 5570 5574 5577 5579 5583 5587 5590 5594 5597 5600 5603 5605 5606 5607 5608 5609 5608 5609 5610 5609 5608
5443 5448 5453 5459 5466 5472 5476 5482 5489 5495 5501 5507 5513 5518 5524 5529 5534 5539 5543 5547 5551 5555 5558 5561 5565 5568 5571 5574 5576 5580 5583 5586 5590 5593 5595 5597 5597 5598 5599 5598 5597 5598 5599
5429 5436 5441 5447 5453 5458 5462 5468 5475 5481 5487 5492 5497 5503 5509 5515 5520 5524 5529 5533 5537 5541 5545 5549 5552 5555 5559 5562 5565 5567 5570 5573 5576 5579 5581 5582 5584 5585 5587 5587 5587 5588 5587
Wind_Speed
48 48 47 46 44 43 41 40 41 41 40 38 37 35 35 34 37 41 41 41 40 42 46 49 50 47 45 47 46 44 42 42 44 43 40 38 37 33 29 26 24 23 22
50 51 50 48 47 45 44 41 42 43 42 40 39 38 38 39 37 39 40 43 44 45 43 45 50 48 46 47 47 46 44 45 45 43 42 41 38 34 31 29 27 26 22
55 55 53 50 46 44 44 44 43 44 43 41 40 38 38 38 40 40 40 41 43 45 43 44 49 48 47 47 48 49 47 48 46 45 45 41 38 37 35 32 30 29 27
54 54 53 51 48 46 47 47 46 44 43 42 40 38 36 36 38 42 42 41 42 42 43 43 46 51 49 50 48 49 49 50 48 46 44 42 41 39 36 34 32 31 29
53 52 50 52 49 45 44 44 45 44 43 42 41 39 38 37 37 39 41 41 39 40 42 44 45 53 53 52 49 49 50 50 49 47 45 44 42 40 37 37 35 34 35
53 52 52 52 52 49 47 47 47 46 44 44 43 43 41 40 41 42 44 42 44 44 44 45 45 58 58 55 51 51 50 53 51 50 49 46 44 44 43 40 38 36 38
50 52 53 53 53 53 50 47 46 47 45 45 45 43 44 43 43 45 45 45 45 46 45 41 38 56 60 58 55 53 52 51 53 52 51 49 49 48 44 43 42 40 40
48 50 49 50 53 53 51 48 46 49 50 47 46 47 47 46 47 48 49 48 47 46 44 46 41 52 66 64 60 57 56 58 58 54 53 52 50 49 47 45 45 43 42
43 48 51 53 54 53 53 50 47 49 50 49 50 49 48 47 47 49 51 50 49 53 54 46 46 50 66 70 64 61 60 58 55 60 57 54 52 52 49 47 48 47 46
38 42 47 50 52 53 52 52 48 47 48 48 47 48 49 49 48 50 53 53 49 51 47 40 44 55 60 74 71 64 61 58 60 58 58 56 56 55 53 51 51 50 52
41 41 43 46 48 49 50 50 48 47 47 47 48 49 50 49 50 53 52 50 46 49 44 44 50 58 60 75 79 72 67 66 64 61 60 59 60 59 57 56 55 56 58
44 44 44 45 46 46 47 48 48 46 48 48 49 49 49 50 52 53 53 46 48 45 46 50 52 63 68 72 75 75 70 67 67 63 63 63 63 62 62 61 61 62 64
40 43 43 42 44 45 45 45 46 47 46 48 48 48 50 51 51 52 51 42 44 40 41 45 50 60 62 66 69 75 77 72 71 69 68 67 68 66 64 66 66 66 67
41 43 41 40 42 43 45 47 47 48 50 49 49 49 49 51 48 43 41 41 48 46 50 41 41 56 54 59 57 71 76 81 79 73 74 72 72 70 69 70 69 69 68
47 46 43 43 43 44 44 46 47 48 49 49 50 51 50 50 49 41 40 44 31 41 44 38 43 51 53 48 62 49 52 76 81 77 74 76 75 73 74 71 71 70 72
45 48 47 46 47 48 46 45 46 46 48 48 49 50 49 46 44 39 36 41 41 54 37 35 25 27 30 35 43 37 48 68 80 84 80 83 72 79 80 77 79 75 72
47 49 49 50 51 49 48 47 46 47 47 47 46 46 47 43 38 31 32 34 35 38 48 47 26 28 35 39 44 44 37 48 48 47 35 41 53 42 51 55 54 41 39
49 52 52 52 53 50 48 49 49 49 48 49 48 47 46 42 38 35 32 29 26 27 30 34 33 31 29 39 31 36 39 34 39 58 68 43 48 59 63 65 62 68 57
55 53 52 52 51 50 49 49 50 50 50 50 50 45 47 42 38 36 32 30 29 26 24 26 26 28 34 32 39 37 32 45 45 43 51 45 44 51 38 32 37 39 42
52 50 55 57 57 55 51 50 51 51 52 51 51 50 48 47 41 37 36 35 34 33 28 27 24 22 21 21 21 21 23 24 30 33 32 28 27 26 29 32 30 31 33
54 53 57 60 57 57 54 52 52 51 53 54 54 53 51 49 47 42 39 39 37 33 32 28 28 24 23 23 25 25 26 26 26 27 31 35 34 35 37 36 37 37 37
59 60 65 59 59 61 60 58 54 54 53 50 51 53 53 53 51 51 47 42 40 38 36 30 30 27 27 27 26 27 28 27 27 29 32 33 32 33 34 36 37 38 39
65 56 52 52 54 61 63 65 59 56 52 51 49 47 47 50 50 49 49 47 44 41 41 37 40 35 31 31 30 30 30 29 29 28 29 29 29 30 31 32 33 34 34
46 44 46 55 59 64 61 57 59 57 54 56 56 52 50 49 50 52 51 50 49 48 46 46 46 45 43 37 36 35 33 32 32 33 32 32 31 31 33 33 34 37 37
54 53 48 52 59 63 61 62 60 59 59 59 57 57 59 56 54 53 54 55 54 53 52 52 52 50 47 47 42 41 39 37 35 35 37 37 35 32 31 34 36 36 36
59 58 53 50 50 47 56 65 66 66 63 63 66 67 66 63 63 63 60 60 60 58 57 57 57 55 53 53 51 49 46 43 40 39 37 34 32 31 32 32 34 37 36
Wind_Direction
242 241 240 241 242 243 242 246 249 251 253 255 255 256 254 247 244 248 250 250 254 257 258 252 250 246 242 240 235 233 233 230 224 219 220 221 221 222 229 240 246 260 266
239 240 239 239 241 242 244 245 250 252 252 253 254 255 253 251 244 244 249 256 258 258 256 256 252 245 239 238 236 232 228 226 224 223 224 225 227 228 233 238 244 254 253
237 240 241 240 243 244 246 248 246 251 253 254 255 255 253 249 248 245 251 254 256 256 259 257 250 243 236 235 234 231 225 224 223 224 227 229 231 232 235 240 248 251 253
242 242 244 244 241 241 243 243 247 247 250 252 253 253 250 248 248 247 252 255 256 252 253 255 249 238 234 233 233 231 227 225 225 224 228 232 234 237 241 244 248 249 257
240 242 242 244 241 239 238 242 244 245 248 251 253 252 251 245 247 246 251 253 247 249 257 257 248 237 230 231 231 231 230 228 228 227 229 234 237 241 244 246 245 249 258
241 239 240 242 243 241 239 240 242 245 246 249 251 251 250 246 247 245 248 251 249 251 255 259 255 237 229 229 229 228 230 231 229 229 232 236 239 242 244 244 245 256 265
241 241 241 242 243 243 242 241 241 244 245 245 248 251 253 250 249 251 250 251 248 247 254 264 264 236 233 227 227 229 228 232 233 232 233 235 239 244 245 246 248 259 269
237 238 239 240 241 243 243 242 239 241 243 244 244 245 245 246 243 247 253 254 255 248 252 256 258 241 234 224 225 228 228 230 232 235 238 238 241 243 245 249 255 261 267
238 237 237 238 239 240 241 241 240 241 243 243 245 246 248 247 249 243 248 250 252 249 252 256 256 248 233 225 225 228 230 231 232 236 239 240 243 246 249 253 258 263 268
235 232 233 234 236 237 238 238 238 238 241 243 244 245 246 246 243 241 248 254 255 252 248 253 250 243 240 230 222 226 232 233 236 237 240 243 246 249 253 256 260 264 267
238 234 232 232 231 233 235 236 236 237 238 240 242 242 244 244 242 246 251 257 257 253 253 250 232 234 244 234 227 223 229 233 236 239 242 245 249 253 255 257 260 264 268
236 232 230 229 229 229 232 234 234 236 236 238 239 242 242 245 243 245 251 255 252 251 254 251 241 236 241 238 236 228 226 231 234 241 243 247 250 253 257 259 262 265 269
229 224 225 225 227 229 229 231 234 233 237 238 239 241 243 246 249 252 257 257 253 256 254 251 239 232 236 238 238 236 229 233 235 241 243 247 251 254 258 262 264 267 269
221 220 222 225 226 229 230 230 232 233 234 237 239 241 244 248 254 259 260 256 253 257 261 247 243 230 234 239 244 244 238 230 234 237 244 246 251 253 256 259 264 268 270
225 223 222 225 225 228 231 232 232 234 236 237 239 243 246 251 255 260 257 250 246 249 243 247 246 240 247 248 240 248 257 249 234 238 244 246 248 252 256 257 260 262 265
225 223 225 228 229 230 230 231 232 232 235 237 240 244 246 251 254 259 259 253 259 259 248 248 245 243 247 246 241 252 252 252 256 254 263 255 251 250 253 258 260 265 271
225 223 224 225 227 230 229 228 231 233 234 236 237 240 244 246 246 246 250 257 265 267 266 268 261 230 237 242 228 249 253 253 249 239 254 259 256 252 268 268 268 251 266
221 221 221 224 226 228 230 229 230 232 233 235 238 240 243 244 246 247 246 250 259 263 270 270 258 240 248 255 245 233 236 259 256 249 247 260 256 254 253 261 255 255 253
216 218 224 225 226 228 230 231 232 232 234 236 238 239 242 242 245 247 249 254 257 257 251 262 262 263 260 263 252 264 263 253 259 249 248 258 270 248 258 265 256 260 261
219 223 223 224 226 228 229 231 232 234 235 236 238 240 241 241 242 245 248 253 258 260 252 244 248 248 252 259 261 262 265 265 265 254 248 249 253 251 252 256 259 260 259
226 231 227 225 225 228 230 233 236 237 237 237 238 240 243 244 243 242 245 251 254 259 264 254 244 246 249 243 242 247 251 254 256 259 259 248 242 248 251 252 251 255 258
222 219 219 222 222 229 232 234 233 235 235 236 241 243 243 245 248 247 245 248 253 258 261 261 260 255 248 246 244 244 247 250 249 249 252 253 255 256 257 259 260 260 262
221 216 214 213 215 221 229 232 232 228 228 229 229 233 238 241 242 244 246 247 250 254 257 255 261 260 255 248 248 250 253 253 257 256 257 259 259 258 257 257 261 264 265
224 224 222 227 233 233 233 231 230 230 230 232 231 229 232 233 239 242 244 245 246 248 251 255 261 266 268 260 265 259 256 256 256 256 254 256 256 260 262 261 263 264 264
228 230 227 226 229 231 233 237 245 245 243 238 239 239 236 235 234 235 237 239 242 247 251 257 262 262 266 265 266 264 267 263 267 261 257 252 257 261 264 265 262 263 266
243 244 236 235 232 234 233 239 245 249 243 249 253 251 246 243 242 241 241 241 243 246 250 255 257 261 262 265 266 265 267 268 268 268 266 266 271 269 273 274 271 269 267